Weather in Uusikaupunki

Finland     60°48′06″N   21°25′19″E
temp.,
°C
wind,
m/s
gust,
m/s
humid.,
%
clouds,
%
prec.,
mm/h
press.,
hPa
HPBL,
m
24 september, fri
fri2400:00+9se81495100 6.6 985990
03:00+8ese51293100 7.6 986690
06:00+8ene51193100 0.8 989742
09:00+8ene51091100 0.8 993733
12:00+8e3891100 0.1 995670
15:00+9ese2485100 0.1 997627
18:00+9sse2489100 0.0 997346
21:00+9s3691100 0.1 997387
25 september, sat
sat2500:00+9sw4793100 1.1 996509
03:00+9w3589100 1.6 995212
06:00+8wnw249152 0.1 995166
09:00+9wnw36915 0.1 997304
12:00+11wnw46765 0.0 1000572
15:00+11wnw5107646 0.1 10031058
18:00+11nw71271100 0.0 10051131
21:00+11nw7137398 0.0 10081011
26 september, sun
sun2600:00+10nnw713755 0.0 1012724
03:00+9nw511805 0.0 1015568
06:00+8nw498425 0.0 1017388
09:00+9nw38776 0.0 1019519
12:00+11nnw475916 0.0 1022660
15:00+12nw35535 0.0 1023586
18:00+11wnw23635 0.0 1024153
21:00+8se117220 0.0 102510
27 september, mon
mon2700:00+8sse127243 0.0 102614
03:00+7se2275100 0.0 102725
06:00+7se2378100 0.0 102848
09:00+8ese247686 0.0 1028113
12:00+12se355977 0.0 1029418
15:00+13sse466199 0.0 1029657
18:00+11sse367591 0.0 1029292
21:00+8se3885100 0.0 1029184
28 september, tue
tue2800:00+7ese39865 0.0 1029207
03:00+6ese399372 0.0 1030189
06:00+6ese399660 0.0 1029196
09:00+8se499160 0.0 1030264
12:00+12sse597126 0.0 1030655
15:00+13sse696822 0.0 1030777
18:00+11sse497843 0.0 1030583
21:00+9se39905 0.0 1030250